Showing default

TDRS 6, 22314

Orbit data source: Space-Track

TDRS 6, 22314 is a payload satellite owned by GSFC (US) in GEO that was launched on Wed, 13 Jan 1993 UTC via an SPACE SHUTTLE launch vehicle from the Air Force Eastern Test Range (AFETR). Payload-class satellites include a variety of spacecraft equipped with specific instruments for various scientific and technological missions. These include communications satellites like Starlink; space stations such as the ISS; scientific satellites like the Hubble; Earth observation satellites from companies like Planet Labs, Umbra, and HawkEye 360; GPS; miniature CubeSats for education and research; and military/defense satellites.

Loading next visibility...
Identifier
22314, 1993-003B
Orbit
GEO
Country
Flag of USUS
Related business
Manufacturer
TRW
Mission
Operational Civil Communications
Bus & Motor
TDRS, AOCS
Mass
2,534 kg wet, ~1,673 kg dry
Launch date (UTC)
1993-01-13 (34 years ago)
Launch vehicle
SPACE SHUTTLE
Launch site
Air Force Eastern Test Range (AFETR)
Object type
Payload
Rocket body
Debris
Shape & HBR
Hex Cyl + 2 Pan, 8.9 m
Radar Cross Section
13.873 m², Large (>1 m²)

Expand to show TLE details & history
Last TLE update: 1 day ago

TLE from 1 day ago
0 TDRS 6
1 22314U 93003B   26265.47889598 -.00000290  00000-0  00000-0 0  9998
2 22314  14.1861 356.3246 0009687 203.3146 288.3437  1.00272223123384
Epoch: 2026-09-22T11:29Z
TLE epoch observation values (Epoch: 2026-09-22T11:29:36.612Z)
Latitude
10.57588°
Longitude
-45.00272°
Altitude
35,772.363 km
Speed
3.076 km/s
True Right ascension
08h 34m 58s
True Declination
10° 33' 55"
Sunlit
Object was in daylight at epoch
Visualization orbit readout
Latitude
Unknown
Longitude
Unknown
Altitude
Unknown
Speed
Unknown
Apparent Right ascension
Unknown
Apparent Declination
Unknown
Sunlit
N/A
Visualization observer readout
Local Sidereal Time
07:54:23
Azimuth
Unknown
Elevation
Unknown
Doppler factor
Unknown
Orbital elements
Apogee altitude
35,828.294 km
Perigee altitude
35,746.603 km
Semi-major axis
42,165.585 km
Eccentricity
0.00097
Inclination
14.1861°
RAAN
356.3246°
Arg. of periapsis
203.3146°
True anomaly
288.2383°
Mean anomaly
288.3437°
Eccentric anomaly
288.291°
Mean motion
0.25067 °/min
Orbital period
1,436.14 mins
BSTAR
0
Loading maneuver chart data...
Computing Atmospheric mass density...
Loading historical data...
Loading historical data...
Loading historical data...
Loading historical data...
Loading historical data...
Loading historical data...
Loading historical data...
Other satellites on launch #3 in the year 1993 (1993-01-13 UTC)

Documentation

Showing up to 5 results
|